Ann Arbor, MI

4:15 AM EDT on August 29, 2016 (GMT -0400)
Ann Arbor Municipal

Weather History for KARB - March, 2012

Change the Weather History Date:

Friday, March 30, 2012

  Actual Average Record
Temperature  
Mean Temperature 36 °F -  
Max Temperature 42 °F 48 °F 68 °F (1999)
Min Temperature 32 °F 28 °F 21 °F (2003)
Degree Days  
Heating Degree Days 28    
Moisture  
Dew Point 33 °F    
Average Humidity 86    
Maximum Humidity 93    
Minimum Humidity 70    
Precipitation  
Precipitation 0.45 in - - ()
Sea Level Pressure  
Sea Level Pressure 29.90 in    
Wind  
Wind Speed 8 mph (East)    
Max Wind Speed 23 mph    
Max Gust Speed 33 mph    
Visibility 6 miles    
Events Rain    
Averages and records for this station are not official NWS values.
T = Trace of Precipitation, MM = Missing Value Source: NWS Daily Summary

Daily Weather History Graph

Daily Weather History Graph

Search for Another Location

Airport or City:

Trip Planner

Search our weather history database for the weather conditions in past years. The results will help you decide how hot, cold, wet, or windy it might be!

Date:

Astronomy

Mar. 30, 2012 Rise Set
Actual Time 7:20 AM EDT 7:59 PM EDT
Civil Twilight 6:51 AM EDT 8:27 PM EDT
Nautical Twilight 6:18 AM EDT 9:00 PM EDT
Astronomical Twilight 5:44 AM EDT 9:35 PM EDT
Moon 12:19 PM EDT (3/30) 2:40 AM EDT (3/30)
Length of Visible Light 13h 35m
Length of Day
12h 38m
Waxing Crescent, 49% of the Moon is Illuminated
Mar 30
Waxing Crescent
Mar 30
First Quarter
Apr 6
Full
Apr 13
Last Quarter
Apr 21
New

Hourly Weather History & Observations

Time (EDT) Temp. Windchill Dew Point Humidity Pressure Visibility Wind Dir Wind Speed Gust Speed Precip Events Conditions
12:53 AM 36.0 °F 31.1 °F 28.0 °F 73% 30.11 in 10.0 mi East 5.8 mph - N/A   Clear
1:53 AM 34.0 °F 28.0 °F 27.0 °F 75% 30.10 in 10.0 mi ENE 6.9 mph - N/A   Clear
2:53 AM 33.1 °F 26.9 °F 26.1 °F 75% 30.09 in 10.0 mi East 6.9 mph - N/A   Clear
3:53 AM 32.0 °F 26.4 °F 26.1 °F 79% 30.08 in 10.0 mi East 5.8 mph - N/A   Mostly Cloudy
4:20 AM 33.8 °F 30.8 °F 26.6 °F 75% 30.04 in 10.0 mi ESE 3.5 mph - N/A   Overcast
4:45 AM 33.8 °F 27.0 °F 26.6 °F 75% 30.04 in 10.0 mi ESE 8.1 mph - N/A   Overcast
4:53 AM 33.1 °F 26.1 °F 26.1 °F 75% 30.06 in 10.0 mi ESE 8.1 mph - N/A   Overcast
5:53 AM 32.0 °F 25.6 °F 26.1 °F 79% 30.06 in 10.0 mi SSE 6.9 mph - N/A   Mostly Cloudy
6:53 AM 33.1 °F 26.1 °F 27.0 °F 78% 30.04 in 10.0 mi East 8.1 mph - N/A   Overcast
7:53 AM 34.0 °F 28.8 °F 28.0 °F 79% 30.03 in 10.0 mi ESE 5.8 mph - N/A   Overcast
8:53 AM 36.0 °F 29.0 °F 30.0 °F 79% 30.00 in 10.0 mi ESE 9.2 mph - N/A   Overcast
9:53 AM 39.9 °F 32.9 °F 32.0 °F 73% 29.95 in 10.0 mi SE 11.5 mph 19.6 mph N/A   Overcast
10:53 AM 41.0 °F 33.9 °F 32.0 °F 70% 29.93 in 10.0 mi SE 12.7 mph 21.9 mph N/A   Mostly Cloudy
11:53 AM 39.9 °F 34.5 °F 32.0 °F 73% 29.95 in 10.0 mi East 8.1 mph - N/A   Overcast
12:25 PM 39.2 °F 34.2 °F 33.8 °F 81% 29.96 in 2.0 mi NE 6.9 mph - 0.09 in Rain Rain
12:35 PM 37.4 °F 32.8 °F 35.6 °F 93% 29.96 in 5.0 mi ENE 5.8 mph - 0.10 in Rain Light Rain
12:48 PM 37.4 °F 29.3 °F 35.6 °F 93% 29.90 in 2.5 mi East 12.7 mph - 0.15 in Rain Heavy Rain
12:53 PM 37.9 °F 29.2 °F 35.1 °F 89% 29.90 in 1.8 mi ESE 15.0 mph 19.6 mph 0.18 in Rain Heavy Rain
1:09 PM 37.4 °F 28.9 °F 35.6 °F 93% 29.84 in 3.0 mi ESE 13.8 mph 27.6 mph 0.05 in Rain Light Rain
1:30 PM 37.4 °F 26.4 °F 33.8 °F 87% 29.76 in 2.5 mi ESE 23.0 mph 29.9 mph 0.09 in Rain Rain
1:40 PM 37.4 °F 28.2 °F 33.8 °F 87% 29.77 in 4.0 mi ESE 16.1 mph 33.4 mph 0.10 in Rain Light Rain
2:02 PM 37.4 °F 31.4 °F 35.6 °F 93% 29.78 in 6.0 mi ENE 8.1 mph 23.0 mph 0.00 in Rain Light Rain
2:37 PM 37.4 °F 30.3 °F 35.6 °F 93% 29.77 in 1.8 mi SE 10.4 mph 20.7 mph 0.10 in Rain Rain
2:45 PM 37.4 °F 34.9 °F 35.6 °F 93% 29.79 in 2.5 mi East 3.5 mph - 0.11 in Rain Rain
2:53 PM 37.9 °F 32.7 °F 35.1 °F 89% 29.81 in 4.0 mi East 6.9 mph - 0.11 in Rain Light Rain
3:28 PM 37.4 °F 28.5 °F 33.8 °F 87% 29.76 in 1.8 mi ESE 15.0 mph - 0.04 in Rain Rain
3:35 PM 37.4 °F 30.8 °F 35.6 °F 93% 29.77 in 3.0 mi ESE 9.2 mph - 0.04 in Rain Light Rain
3:49 PM 37.4 °F 34.9 °F 35.6 °F 93% 29.80 in 5.0 mi NNE 3.5 mph - 0.04 in   Overcast
3:53 PM 37.9 °F 32.1 °F 35.1 °F 89% 29.83 in 5.0 mi NE 8.1 mph - 0.04 in   Overcast
4:16 PM 37.4 °F 32.8 °F 35.6 °F 93% 29.81 in 1.8 mi NNE 5.8 mph - 0.04 in Rain Rain
4:27 PM 37.4 °F 32.1 °F 35.6 °F 93% 29.81 in 3.0 mi NNE 6.9 mph - 0.04 in Rain Light Rain
4:53 PM 37.9 °F 33.5 °F 35.1 °F 89% 29.82 in 5.0 mi ENE 5.8 mph - 0.04 in Rain Light Rain
5:04 PM 37.4 °F 31.4 °F 35.6 °F 93% 29.79 in 4.0 mi ENE 8.1 mph - 0.01 in Rain Light Rain
5:53 PM 37.0 °F 31.0 °F 35.1 °F 93% 29.81 in 2.0 mi NE 8.1 mph - 0.06 in Rain Rain
6:23 PM 37.4 °F 30.8 °F 35.6 °F 93% 29.79 in 4.0 mi NE 9.2 mph - 0.02 in Rain Light Rain
6:53 PM 37.0 °F 29.8 °F 35.1 °F 93% 29.83 in 7.0 mi NE 10.4 mph - 0.02 in   Overcast
7:53 PM 37.0 °F 29.8 °F 34.0 °F 89% 29.83 in 8.0 mi NE 10.4 mph - N/A   Overcast
8:53 PM 37.0 °F 31.6 °F 34.0 °F 89% 29.85 in 8.0 mi NE 6.9 mph - N/A   Overcast
9:53 PM 37.0 °F 29.3 °F 34.0 °F 89% 29.86 in 8.0 mi NNE 11.5 mph - N/A   Overcast
10:15 PM 37.4 °F 30.8 °F 33.8 °F 87% 29.85 in 9.0 mi NNE 9.2 mph - N/A   Overcast
10:53 PM 37.9 °F 32.7 °F 35.1 °F 89% 29.88 in 7.0 mi NE 6.9 mph - N/A   Overcast
11:33 PM 37.4 °F 31.4 °F 35.6 °F 93% 29.87 in 8.0 mi NE 8.1 mph - N/A   Overcast
11:53 PM 37.0 °F 31.0 °F 34.0 °F 89% 29.89 in 8.0 mi NE 8.1 mph - N/A   Overcast